Theta_e
359 358 358 358 358 357 358 358 358 358 353 348 345 344 343 344 340 336 336 337 337 345 344 342 353 350 355 355 358 357 357 356 356 357 357 357 357 350 344 343 343 343 343 344 344 345 346 346 348 349 349 348 348 349 350 350 349 349 350 350 350 349 349 348 346 345 345 346 345 345 346 347 348 350
358 358 357 357 357 358 357 357 357 358 356 349 346 346 345 344 346 341 338 339 335 341 345 341 348 356 354 355 357 358 359 355 356 359 358 356 357 345 342 342 343 342 342 341 340 342 343 344 344 342 341 341 342 345 347 348 348 349 348 346 346 344 343 342 341 341 341 341 342 342 342 344 345 345
357 357 356 356 356 357 357 357 356 357 357 355 351 349 346 343 347 343 341 338 344 338 346 349 346 347 352 353 354 358 360 358 357 359 359 359 352 347 352 346 344 343 341 340 339 338 339 339 338 337 338 339 341 343 345 345 346 345 342 341 340 339 339 338 338 339 339 339 340 339 340 340 341 341
357 356 355 356 356 356 356 356 357 357 357 356 353 351 348 346 345 345 343 341 341 345 343 347 350 349 351 356 357 360 360 360 354 361 361 362 354 360 361 352 347 344 341 340 338 337 335 334 335 337 338 340 342 344 344 343 341 339 337 336 334 334 335 335 335 336 336 336 336 337 337 338 339 339
357 357 355 356 356 356 356 357 356 356 357 357 354 351 350 348 346 346 344 343 344 349 346 345 349 351 353 355 355 358 359 360 362 357 362 362 361 361 362 362 352 347 343 340 338 337 336 334 333 335 338 339 341 341 341 339 336 333 332 331 329 329 330 331 331 333 333 333 334 335 335 336 337 337
356 357 356 356 355 356 355 355 354 356 356 356 356 353 352 352 350 347 348 346 345 345 350 351 353 352 354 355 357 356 357 359 360 359 361 361 362 362 363 363 364 350 345 340 337 336 335 334 334 334 335 337 336 336 334 333 329 328 327 326 326 327 326 326 329 330 329 330 331 332 332 333 334 335
356 355 355 355 356 355 355 355 354 354 355 355 356 356 354 353 353 351 349 349 347 347 349 348 350 355 357 356 358 359 357 359 358 358 360 359 360 362 363 363 363 352 345 341 338 336 335 334 334 333 334 334 331 331 327 325 324 323 323 323 325 325 324 323 325 327 326 326 327 329 329 330 331 331
355 355 355 355 355 355 355 355 355 355 355 355 355 354 355 355 355 354 351 349 350 349 348 352 352 355 354 357 357 356 358 357 359 359 360 360 361 362 364 364 364 357 346 342 339 340 338 337 335 332 331 329 325 324 323 322 322 322 321 321 321 321 321 321 321 324 323 323 324 325 326 327 328 327
356 356 355 356 356 355 354 355 354 355 355 355 354 354 354 354 354 354 354 353 351 350 349 352 354 354 354 356 356 357 356 358 359 359 359 360 362 363 363 362 362 351 347 348 347 344 340 339 335 331 330 327 324 323 323 321 321 320 319 318 319 320 320 320 319 321 320 321 321 321 323 325 326 325
357 356 356 356 356 355 354 354 355 356 355 355 354 354 354 354 354 354 353 354 353 351 351 351 351 354 353 355 356 357 356 356 356 358 360 361 363 363 361 361 361 363 364 365 365 353 351 345 331 329 328 326 324 324 323 322 321 319 317 314 315 318 317 318 319 320 319 319 320 320 320 322 323 325
356 356 356 356 356 355 355 355 355 355 355 355 355 356 356 355 354 353 353 353 352 352 351 351 352 351 353 353 353 356 355 356 356 355 355 356 360 361 359 359 362 364 363 358 350 352 350 343 344 323 324 324 324 324 323 323 322 321 317 316 316 316 316 316 318 318 317 318 318 317 316 317 320 323
356 356 356 356 356 356 356 356 356 356 355 356 354 355 355 355 353 353 353 352 351 351 350 350 350 352 351 352 352 353 353 354 355 356 356 352 355 358 359 359 358 361 361 361 363 356 353 348 338 326 327 328 327 326 327 328 327 323 318 318 320 320 317 317 317 317 317 316 315 315 315 315 317 319
356 356 356 356 357 358 360 357 356 356 357 356 355 356 355 355 354 353 352 352 351 350 349 349 351 349 349 351 350 350 352 352 351 355 354 354 356 356 355 359 361 359 358 361 361 361 360 358 355 351 346 342 335 332 329 329 328 324 318 318 320 320 319 317 317 317 317 316 316 315 314 315 316 318
355 355 356 357 360 360 358 353 350 346 348 354 356 357 356 355 354 353 352 352 351 350 349 349 349 348 348 349 351 350 352 354 354 353 355 353 356 355 355 357 359 356 359 359 358 361 360 356 352 349 342 338 338 335 333 329 326 323 320 320 319 319 319 317 317 317 316 316 315 315 313 314 316 316
354 355 356 356 358 361 363 358 348 345 343 344 345 348 355 358 356 354 352 352 352 350 350 351 350 348 349 350 352 351 351 353 353 354 355 353 352 352 350 348 354 354 357 358 356 358 359 358 349 345 341 337 337 333 330 328 324 320 320 319 319 319 318 319 319 318 316 315 315 315 314 315 316 315
354 354 354 355 355 357 358 360 361 354 346 341 341 342 342 346 350 352 355 355 353 352 350 350 350 350 350 352 353 351 351 353 355 356 354 350 352 352 351 350 348 355 358 356 354 354 360 356 348 344 340 338 336 331 327 323 322 320 319 319 319 319 318 318 319 319 318 317 316 317 316 316 316 315
353 354 354 354 355 355 359 360 359 359 358 347 340 340 342 342 341 337 338 344 356 358 354 352 352 352 353 352 353 354 356 357 354 355 352 352 351 352 350 350 350 355 359 357 353 352 357 352 347 342 340 338 336 330 327 323 321 319 319 319 319 318 318 318 318 317 317 316 315 314 313 313 313 314
353 353 353 353 354 355 356 359 359 359 358 358 356 352 350 351 351 344 336 335 337 346 354 355 353 355 357 353 355 359 359 355 353 354 353 354 351 350 350 354 354 356 357 352 352 350 356 347 342 341 340 338 336 334 327 321 320 319 318 318 317 317 316 317 317 316 316 315 314 313 311 311 311 312
353 353 354 354 354 354 355 356 357 357 358 357 357 357 356 355 355 355 354 350 347 347 347 352 354 356 358 358 358 359 360 358 358 357 357 357 354 353 353 351 352 353 355 354 352 349 356 347 342 342 340 337 336 335 325 321 319 318 316 318 317 316 315 316 316 315 315 315 313 312 311 310 310 310
353 354 354 354 354 354 354 354 344 351 357 356 355 354 355 355 356 356 355 343 345 354 352 352 353 354 356 346 357 358 358 359 359 358 355 353 351 350 349 348 351 352 355 356 354 350 351 348 343 342 339 337 335 335 333 325 319 318 317 317 316 315 313 314 314 314 314 314 313 312 311 308 308 310
352 353 354 354 354 355 354 347 333 334 351 355 354 353 353 354 354 354 356 340 332 333 332 332 334 333 333 332 330 329 331 348 354 354 350 349 350 348 346 348 350 352 353 353 355 353 350 348 343 341 338 337 335 334 332 330 322 318 316 315 315 314 314 313 313 313 313 314 313 312 311 309 309 314
352 353 357 357 354 354 354 338 331 330 343 354 354 354 352 351 351 353 355 356 353 329 326 326 327 328 330 331 330 330 329 328 341 352 347 350 351 348 348 347 350 353 352 352 352 347 346 344 340 341 338 334 336 334 334 331 327 322 320 316 315 314 313 313 312 313 312 313 312 311 309 308 311 325
352 352 355 356 353 353 348 333 329 327 340 353 353 353 352 350 350 352 354 355 354 354 351 351 348 344 340 342 343 345 335 332 338 348 351 352 350 348 350 350 350 348 351 356 352 348 347 341 340 340 337 332 335 334 335 333 330 328 328 328 326 315 315 315 313 311 311 311 311 311 309 308 312 322
350 352 353 350 334 330 330 328 325 323 325 349 353 353 351 350 349 354 354 354 354 353 353 353 354 355 357 356 354 352 351 347 345 345 348 350 351 351 351 353 351 348 350 353 348 350 343 340 341 337 337 332 332 333 334 334 331 328 327 327 325 321 320 319 317 315 311 311 310 310 309 309 311 320
349 350 352 353 339 326 324 322 321 319 318 329 352 353 352 352 351 351 354 353 357 355 353 352 353 354 355 356 357 357 356 354 351 346 346 349 351 352 352 353 352 351 353 355 340 352 343 336 338 334 333 330 328 330 333 332 333 329 327 326 325 325 324 323 321 323 316 314 310 309 309 309 310 314
349 350 351 352 342 326 322 320 319 316 317 319 343 351 331 331 331 346 352 353 353 353 353 353 352 353 353 354 355 356 357 356 357 355 352 349 350 354 357 357 355 352 354 356 333 349 343 335 337 335 332 330 329 327 330 331 332 330 327 326 326 326 324 322 322 323 323 322 322 314 313 310 311 311
349 351 352 353 344 325 319 317 317 317 316 319 331 324 323 324 326 338 349 350 351 351 350 350 350 351 352 352 353 354 355 357 359 358 358 357 355 354 356 357 358 358 360 349 346 347 344 341 338 340 335 331 332 328 327 327 326 329 327 325 325 326 325 322 321 321 322 321 321 312 312 312 311 312
350 351 352 348 330 321 315 314 316 317 317 328 319 316 319 322 329 339 344 344 346 346 347 348 349 350 352 353 354 354 357 357 362 360 361 360 359 357 354 354 354 356 357 354 348 347 343 342 337 338 340 334 331 329 329 327 327 327 323 325 325 325 326 323 321 321 322 322 320 319 318 318 318 318
351 338 329 326 323 321 317 315 316 317 317 314 316 316 318 330 337 339 341 343 346 345 345 347 349 351 352 354 355 359 360 361 361 360 359 360 359 358 356 354 352 352 353 354 350 346 343 343 341 335 334 335 333 330 328 330 325 324 323 323 324 324 325 324 322 320 321 321 319 319 317 316 317 317
333 329 324 323 322 323 325 333 335 338 339 321 317 319 325 334 339 341 343 344 344 345 347 347 347 349 352 354 358 360 360 358 357 358 357 354 351 349 349 347 346 345 346 348 349 347 344 343 340 336 334 332 332 331 329 325 325 326 324 322 323 324 324 324 322 321 319 319 320 319 319 318 317 317
341 339 336 337 329 332 329 331 331 333 337 337 334 332 334 337 339 341 343 345 345 345 346 346 347 350 353 357 356 356 355 354 356 358 355 353 353 349 348 347 342 340 339 341 341 341 340 340 338 337 334 330 326 329 327 323 324 323 324 323 322 321 323 325 324 321 320 319 320 320 319 320 319 319
344 347 339 336 344 343 343 340 342 343 345 345 344 343 339 337 338 340 342 344 345 346 347 348 350 350 353 352 353 355 353 354 355 356 352 352 351 346 342 339 340 341 339 337 337 338 338 337 337 337 335 328 326 325 321 322 322 324 324 323 323 324 324 323 322 322 321 319 320 320 319 318 318 319
342 344 345 346 345 345 344 344 345 345 345 345 346 347 346 342 340 340 341 340 342 343 344 345 347 348 351 351 353 353 352 352 353 352 351 350 351 346 342 341 341 339 338 336 336 334 334 334 334 332 330 331 331 328 324 321 322 323 323 325 323 323 324 324 323 322 321 321 320 319 319 319 319 319
341 341 341 343 343 344 345 345 345 346 346 347 347 347 339 344 343 342 341 341 342 344 343 345 346 346 348 349 351 351 350 351 352 350 344 349 348 343 339 340 341 341 340 338 335 331 329 328 328 328 327 326 325 327 328 327 327 325 324 323 322 322 324 323 323 321 320 318 317 318 319 320 319 319
339 341 340 341 342 343 344 344 345 346 347 347 347 348 347 346 345 341 342 341 339 340 342 343 345 346 346 345 347 347 347 349 351 349 346 348 345 344 342 341 342 341 338 337 334 330 326 325 325 324 325 327 329 329 326 329 326 325 323 321 322 322 324 323 323 321 319 318 317 317 318 319 320 320
338 340 341 341 342 342 342 343 344 346 346 347 348 348 347 345 343 342 340 338 340 339 340 341 340 340 340 341 341 344 347 346 349 347 343 343 342 342 343 343 343 343 339 336 333 327 326 324 324 324 324 324 323 323 328 326 325 328 323 324 322 322 323 321 320 319 319 320 318 317 316 316 320 321
339 339 341 342 343 342 342 344 345 346 346 347 348 349 348 345 342 342 342 337 338 337 339 340 340 340 340 339 339 340 343 346 346 345 342 341 341 340 340 341 342 341 337 335 332 325 325 325 326 325 324 322 322 321 324 326 319 319 326 324 325 322 324 321 321 322 322 321 320 318 319 319 319 322
340 341 340 340 342 344 344 345 345 346 347 348 349 348 347 347 346 344 344 341 339 338 338 339 339 338 340 340 341 343 345 346 346 344 341 341 339 339 340 342 342 340 337 331 327 324 324 325 325 327 325 322 320 320 321 326 326 322 316 325 325 324 322 322 321 322 324 319 318 321 318 318 321 323
341 342 342 342 342 344 345 345 345 347 348 348 347 347 347 345 344 344 342 341 342 342 342 341 340 340 340 342 341 342 344 345 343 343 342 341 341 342 340 340 340 338 333 328 327 325 326 326 328 326 326 325 322 323 326 326 328 332 319 312 324 325 322 322 323 323 321 321 321 318 317 320 317 313
339 342 343 344 345 345 345 347 347 348 348 347 348 349 347 343 343 343 343 342 343 343 343 342 341 339 343 343 343 346 347 346 345 345 343 342 339 341 341 339 338 335 331 327 325 326 326 327 328 327 327 329 331 329 328 329 328 325 325 318 308 320 327 323 323 324 323 322 320 319 320 321 320 322
337 340 342 344 347 347 346 346 347 348 348 347 348 340 345 342 341 342 344 345 343 344 343 345 345 344 345 346 346 345 344 344 345 345 343 341 337 336 335 332 335 334 332 329 329 327 327 329 332 325 332 329 326 327 324 322 322 328 328 328 309 307 309 317 327 325 323 322 321 320 318 319 318 318
338 340 343 345 346 347 348 347 347 347 347 346 346 344 344 342 342 335 340 339 343 345 346 346 347 346 347 347 347 343 345 345 344 342 339 339 337 334 330 331 334 334 333 332 330 330 332 334 332 331 328 326 324 322 320 321 321 324 328 328 327 312 308 308 308 313 327 324 320 318 318 317 316 316
338 340 342 343 345 346 347 346 346 346 346 345 344 344 343 342 342 340 340 341 341 342 344 345 347 348 348 348 348 346 345 344 343 340 338 336 336 335 332 333 335 337 334 334 332 332 329 330 329 327 326 324 323 323 323 323 324 325 326 325 326 326 323 312 309 308 309 310 312 317 322 320 317 313
340 340 342 343 343 344 345 346 345 346 345 344 343 341 340 340 340 341 341 341 342 342 344 345 346 345 344 343 342 341 340 341 339 336 334 333 334 337 336 334 333 332 331 331 330 328 327 326 327 326 323 322 324 323 322 323 322 323 324 324 325 325 325 324 321 313 312 312 311 309 310 311 314 314
333 332 327 327 330 333 337 343 345 345 346 344 341 340 338 339 340 341 341 341 341 341 340 342 341 339 337 336 336 335 335 331 334 337 337 335 335 335 335 333 331 331 331 331 330 327 325 324 324 325 325 327 325 324 324 324 324 322 322 323 323 324 323 321 322 322 323 323 317 310 310 311 312 311
Wind_Speed
3 3 3 3 3 2 2 3 3 2 2 3 3 4 5 3 1 3 4 4 3 2 1 2 2 1 2 4 3 4 3 3 3 2 3 3 4 7 10 11 11 12 12 12 12 12 12 12 12 12 12 12 12 11 11 11 11 10 10 11 11 12 12 11 11 11 12 13 13 14 14 16 17 19
3 3 2 2 3 2 2 2 2 2 2 2 3 4 3 3 3 2 3 5 3 4 2 3 3 3 5 4 6 4 4 4 4 2 3 3 4 8 10 11 11 11 11 11 12 12 11 11 11 10 10 10 10 9 9 9 9 9 9 10 10 10 10 10 10 10 10 11 12 12 13 15 15 16
3 4 4 3 3 2 2 2 1 2 2 3 2 3 3 4 4 4 3 3 3 3 3 3 2 2 5 4 5 5 3 4 3 3 3 4 6 9 8 10 10 11 11 11 11 11 10 10 9 9 9 8 8 8 8 7 8 8 8 8 8 9 9 9 9 10 10 11 12 12 13 14 14 15
4 4 4 5 4 3 2 2 2 2 2 2 2 3 3 3 2 3 4 4 7 3 4 5 6 4 4 6 5 5 5 3 2 3 4 5 7 5 5 9 11 11 11 10 10 10 9 9 8 7 7 7 7 7 7 6 7 7 7 7 7 7 8 8 8 8 9 10 11 12 13 13 14 14
4 4 4 5 4 2 3 3 2 2 2 1 2 2 3 3 3 4 4 4 7 4 3 2 4 3 3 5 0 5 5 6 5 5 5 6 5 5 5 6 10 11 11 10 9 8 8 8 8 7 6 6 6 6 5 6 6 6 6 6 6 5 5 5 6 7 8 9 10 11 13 14 14 14
3 4 5 5 4 3 4 3 3 3 2 2 2 3 3 4 4 3 4 4 3 8 2 4 2 3 1 4 1 3 6 7 5 6 6 5 4 5 5 5 6 11 11 11 11 9 9 8 7 7 8 7 6 6 7 7 7 7 6 5 4 3 4 5 7 8 10 12 13 13 14 14 15 15
4 5 5 6 4 2 4 4 4 2 3 2 3 3 3 4 4 3 4 3 4 6 7 1 3 2 1 2 6 4 3 4 4 6 5 6 5 4 5 5 5 9 11 11 10 8 8 7 8 8 7 7 7 9 8 8 7 6 5 4 6 8 10 11 10 12 13 13 13 14 14 15 15 15
6 7 6 6 4 4 5 5 4 3 3 3 3 4 3 4 4 3 4 5 4 3 7 4 3 3 4 4 3 3 4 4 4 3 4 5 5 6 5 4 5 7 11 10 8 7 7 7 8 7 7 9 10 9 9 8 6 5 6 8 9 10 10 10 10 10 11 12 12 13 15 15 14 14
7 7 8 7 5 5 6 5 5 4 5 4 3 4 3 4 3 3 4 4 3 4 6 5 3 2 3 3 4 2 4 3 4 3 4 4 6 5 5 4 5 7 9 6 6 6 5 6 8 8 10 10 9 9 8 7 7 8 9 10 10 10 10 10 10 11 11 12 12 13 14 15 15 14
7 7 8 7 6 6 7 7 6 5 6 4 4 5 4 4 3 3 3 3 3 4 5 5 6 2 4 4 3 2 1 4 7 5 2 3 4 4 6 6 5 4 4 4 4 3 4 7 8 10 9 9 9 8 7 7 8 10 11 11 10 10 10 10 11 11 12 13 13 12 13 13 14 14
7 8 7 7 7 8 8 8 7 6 5 5 6 6 5 4 4 4 4 3 4 4 4 4 5 5 3 3 6 1 1 3 4 6 6 3 2 2 4 7 5 4 5 3 2 2 4 5 5 8 8 7 7 7 8 9 10 10 10 10 10 10 10 10 11 12 12 13 13 13 13 13 14 14
7 8 8 8 8 8 8 8 7 6 6 5 6 5 5 4 4 5 4 3 4 4 4 5 5 3 4 3 4 3 3 4 2 2 2 7 6 4 2 4 6 3 3 4 3 2 3 5 8 8 7 7 6 6 7 8 8 8 8 8 9 9 10 11 11 12 12 13 14 14 14 14 14 14
7 8 8 8 8 9 11 12 11 9 8 6 6 6 5 5 5 5 4 4 4 4 4 5 4 4 5 5 4 5 4 4 6 2 1 4 5 5 5 4 3 3 3 2 3 2 2 1 2 2 2 2 4 5 4 4 6 8 7 8 8 9 10 10 11 12 12 13 14 15 14 14 13 13
8 8 8 8 13 14 14 14 14 14 13 12 9 7 6 6 5 5 5 5 4 4 5 5 5 5 6 5 4 4 5 4 3 4 3 5 4 4 5 4 2 0 1 2 4 3 1 1 2 2 2 1 2 2 3 4 4 5 6 7 8 9 9 10 11 11 12 13 14 15 14 13 12 12
8 8 8 7 10 12 13 13 15 14 14 14 14 14 11 8 7 6 6 6 5 5 6 5 4 5 7 7 4 5 6 4 5 4 3 4 3 3 5 7 3 1 1 2 3 4 1 2 3 2 2 2 2 2 2 2 3 4 6 7 8 9 9 10 11 12 13 13 14 14 14 13 12 12
7 8 7 7 6 7 9 8 8 11 14 15 15 15 14 13 13 12 9 8 5 6 6 6 7 6 7 7 4 5 4 6 4 4 3 4 4 4 4 4 5 1 1 3 4 6 1 2 3 3 2 2 2 2 0 2 3 4 6 7 8 9 10 10 11 12 14 14 14 15 15 14 13 12
8 7 7 7 6 7 14 11 9 7 8 11 15 14 14 15 15 14 15 13 11 6 6 7 8 7 6 7 7 5 5 2 5 2 3 3 4 4 5 5 4 3 1 2 4 6 2 2 3 2 3 3 3 2 1 2 3 4 6 8 9 9 10 10 10 11 13 13 13 14 14 14 13 12
9 10 9 8 7 7 8 8 8 7 8 6 6 7 7 7 10 13 16 16 16 12 8 7 9 11 6 9 10 6 4 5 7 6 6 4 5 5 7 5 4 2 1 4 3 6 4 2 2 2 3 3 3 2 1 1 3 4 5 8 9 9 9 9 10 9 11 12 12 13 14 14 13 12
11 11 10 9 9 9 7 7 8 8 7 6 6 7 7 8 7 8 8 9 8 8 8 10 11 10 7 8 9 7 5 8 8 7 8 5 4 4 3 4 4 5 5 6 4 6 2 1 2 2 4 4 3 2 2 1 3 4 6 7 8 9 9 9 9 9 9 11 11 13 14 13 13 12
11 11 11 10 9 10 9 11 14 12 8 7 7 8 7 7 7 7 10 11 10 9 9 9 10 10 10 10 10 8 6 6 6 4 2 1 2 3 5 6 2 4 2 5 6 4 3 1 2 1 2 3 3 3 1 1 3 5 6 6 8 8 9 9 9 9 8 10 11 11 13 14 12 12
11 11 11 10 8 9 10 11 14 14 12 7 8 8 7 6 6 8 7 11 14 15 14 15 15 16 15 15 15 14 11 9 4 2 3 6 4 5 7 6 3 4 3 4 6 3 5 2 3 1 2 3 2 3 2 1 1 4 5 6 7 8 9 9 9 9 8 10 11 11 11 12 12 11
10 12 16 13 11 11 11 13 14 15 12 8 8 7 7 8 8 9 6 3 6 12 14 15 16 16 16 16 16 15 13 12 6 6 8 7 3 6 6 9 5 4 2 4 6 3 4 1 2 2 1 1 2 3 2 1 0 1 1 3 5 8 8 9 9 9 8 8 10 11 11 12 10 7
10 10 12 16 15 13 13 16 15 15 12 9 9 8 7 8 9 9 9 7 6 5 5 7 7 8 11 10 8 10 15 12 11 9 10 6 6 7 7 7 7 8 7 4 9 6 3 3 2 2 0 2 1 1 2 2 0 1 2 2 2 5 7 7 7 8 9 7 9 11 11 13 10 7
10 10 9 12 16 18 17 17 16 15 16 11 8 7 7 8 11 9 8 8 7 8 7 7 7 8 7 6 6 6 6 6 10 10 9 9 8 7 7 6 8 9 7 1 8 6 0 2 2 2 2 2 2 2 2 2 1 0 1 1 2 4 4 4 4 5 7 6 7 9 11 11 11 7
9 9 9 9 13 18 19 18 17 15 16 15 10 8 9 10 13 10 7 9 11 8 8 8 7 6 6 5 5 5 5 6 6 8 9 9 9 8 7 8 8 9 7 4 9 4 4 3 3 3 1 2 1 0 1 1 2 1 1 1 2 3 3 4 3 4 3 4 6 8 10 10 11 9
9 11 9 9 12 17 18 18 18 18 15 17 10 12 15 17 15 12 10 7 4 5 6 6 6 6 6 6 5 5 6 7 7 7 7 8 9 9 9 8 7 6 6 5 13 7 5 4 6 4 3 3 1 1 1 2 2 1 0 0 1 1 2 3 3 4 5 5 5 7 7 8 8 9
12 10 10 11 14 16 17 18 19 17 17 12 11 18 17 17 16 11 5 7 7 6 7 6 7 7 6 6 6 6 7 7 6 7 7 7 8 8 8 7 6 5 1 5 7 7 6 4 4 7 5 2 2 1 1 2 1 0 2 0 1 1 1 2 3 4 5 5 5 7 3 4 7 7
9 10 11 11 15 17 18 18 18 17 14 12 17 17 17 16 12 5 5 6 8 8 7 7 7 8 7 6 7 7 6 7 5 6 6 6 6 7 6 7 7 7 5 5 5 6 7 6 4 3 4 5 4 3 2 2 2 1 2 2 1 1 1 2 3 3 4 4 5 7 6 6 8 8
10 13 15 16 17 17 17 18 15 12 12 15 14 16 18 13 4 6 6 7 6 7 8 8 8 8 8 8 7 6 5 5 4 4 5 5 6 7 6 5 4 5 5 6 5 6 6 6 5 4 3 3 4 2 3 2 1 2 1 2 1 1 1 1 2 3 4 4 4 5 6 7 8 8
18 17 16 17 17 13 11 8 6 8 10 14 16 15 11 5 6 6 7 7 8 9 8 8 9 8 6 6 6 5 4 5 7 6 5 4 4 4 4 3 2 1 2 3 5 5 5 5 5 6 4 3 3 4 4 3 3 2 1 2 3 2 1 1 2 3 4 4 4 3 3 4 5 6
12 13 10 7 8 8 12 12 10 8 6 6 7 6 6 6 6 7 7 8 9 9 8 7 7 6 6 3 2 5 5 8 8 5 6 6 6 4 3 4 4 3 1 2 2 3 4 4 6 8 7 4 2 3 3 2 2 1 1 2 1 2 1 1 2 3 3 3 2 2 2 2 3 5
10 10 6 6 5 4 3 4 3 4 4 6 6 6 5 6 7 8 7 7 6 6 7 7 5 5 4 6 6 5 7 9 6 5 7 7 6 4 4 3 4 3 3 2 2 2 3 3 4 4 5 8 6 3 2 2 2 2 2 1 2 2 2 2 2 1 2 2 2 3 2 3 4 4
8 6 5 5 5 5 6 5 5 5 5 6 6 6 5 5 5 5 5 6 7 8 7 7 7 7 6 6 6 8 8 9 8 5 6 5 6 2 4 6 5 4 5 4 3 2 2 3 3 3 3 2 2 6 6 2 4 3 3 2 1 2 1 1 1 1 2 1 1 1 2 2 2 3
7 7 7 9 8 7 6 7 7 8 7 7 6 5 6 5 5 5 5 6 6 6 7 8 6 7 6 7 7 9 9 8 7 7 7 7 6 6 6 6 5 5 5 5 5 5 3 3 4 4 3 2 1 3 4 5 3 3 3 2 2 3 1 1 1 1 1 1 2 4 3 1 1 1
8 7 9 8 8 8 8 8 8 7 8 7 6 5 5 4 5 5 5 6 7 9 9 8 7 5 5 7 7 6 7 7 7 6 6 6 6 7 6 7 7 6 5 5 5 4 4 4 5 4 3 3 2 2 4 4 2 2 1 2 2 2 2 1 0 0 0 1 0 2 4 1 1 0
8 9 10 8 8 8 8 9 8 8 8 6 6 5 5 7 8 8 9 11 11 10 7 5 4 5 7 8 9 9 8 8 7 6 5 6 7 7 7 8 6 6 6 6 6 5 5 6 6 7 5 3 2 3 2 7 7 3 4 3 2 2 2 1 0 0 1 1 1 0 2 4 4 1
9 9 10 9 8 8 9 8 8 8 7 6 6 7 8 9 10 10 10 8 6 4 6 7 8 8 8 8 8 9 11 8 7 5 5 6 7 6 7 8 9 7 8 7 7 8 7 7 7 7 6 5 5 6 4 1 5 7 5 5 3 3 2 1 1 2 2 2 2 2 3 3 4 3
11 8 8 9 8 7 7 7 7 7 6 7 8 8 10 9 7 7 6 7 8 6 7 8 7 5 6 7 8 8 9 7 6 5 7 7 7 9 9 9 8 7 7 5 6 8 9 10 10 9 9 7 6 6 4 2 1 5 12 7 6 3 3 2 2 3 1 2 3 1 1 3 4 3
8 8 8 8 8 8 7 8 9 10 9 8 9 10 8 6 6 7 7 9 9 8 8 8 7 7 8 9 8 8 8 6 6 6 7 9 9 8 7 7 7 4 5 6 5 7 7 8 8 8 9 8 9 7 6 4 4 1 6 14 6 4 4 5 3 2 2 2 2 1 3 4 6 8
10 9 10 9 7 7 8 9 9 9 9 10 9 6 6 7 8 10 9 8 7 7 7 8 8 7 8 9 8 8 8 8 8 7 9 9 8 9 8 6 6 4 5 7 7 6 7 7 7 9 10 8 2 1 2 2 0 1 1 7 13 9 6 6 5 3 2 2 1 1 3 1 2 1
9 8 8 8 8 9 9 9 9 8 7 7 8 8 9 10 10 9 8 7 7 7 7 7 7 9 9 9 8 9 10 9 7 7 8 9 8 7 7 5 6 6 8 7 8 8 9 10 8 7 5 4 3 2 2 1 3 2 3 3 9 13 9 7 5 5 4 3 3 2 3 3 3 3
9 10 11 10 10 9 8 8 7 7 8 8 8 8 9 8 8 9 8 8 7 7 7 7 8 8 8 8 8 8 10 10 8 8 8 7 6 5 7 7 7 6 7 8 8 8 6 3 6 7 6 6 4 5 6 5 5 4 2 1 1 6 11 11 7 4 3 4 4 3 2 1 2 3
9 9 8 6 6 5 6 8 8 8 8 8 8 7 8 9 7 7 7 8 8 7 7 7 8 8 8 7 7 7 8 9 8 7 8 8 7 6 7 9 10 8 6 5 4 4 4 6 6 6 6 6 6 6 7 6 5 3 2 2 1 1 2 7 10 9 7 6 7 7 5 4 2 4
7 8 6 5 6 7 7 7 9 9 9 9 10 9 8 8 8 9 8 8 7 6 6 6 7 7 6 5 5 5 4 5 4 4 5 5 6 6 6 6 5 5 5 5 4 5 4 4 5 6 7 7 6 6 7 6 5 4 3 2 1 2 2 2 2 5 7 11 14 14 13 11 12 11
4 4 5 4 5 6 7 8 9 8 6 7 6 6 7 7 6 5 5 4 3 4 5 6 6 5 5 4 4 4 7 8 6 6 6 5 5 5 5 5 6 6 6 5 5 4 4 4 3 3 4 4 5 6 6 4 4 2 3 3 5 3 2 1 3 3 4 5 11 16 16 16 16 16
Wind_Direction
233 228 213 224 241 232 193 213 221 216 196 202 199 193 201 169 113 318 316 296 293 307 175 304 299 311 313 327 324 318 290 283 282 285 270 269 266 280 283 287 290 290 291 290 291 292 293 292 291 291 292 292 290 291 295 293 296 296 298 303 305 308 312 314 312 307 302 298 296 293 290 287 283 279
224 237 238 215 239 224 225 240 217 214 209 198 190 197 204 169 191 182 282 291 218 275 289 199 284 324 326 327 319 316 303 310 308 291 285 281 277 290 291 290 289 289 291 292 293 293 293 294 297 298 297 297 300 302 298 297 304 310 323 331 333 335 335 331 323 315 309 308 304 301 300 299 296 291
206 230 252 242 243 221 244 241 233 220 200 218 189 200 177 206 183 166 164 293 279 169 284 283 218 279 306 317 307 307 296 316 318 306 300 292 300 296 291 290 291 294 296 295 293 292 293 297 297 296 299 311 320 317 319 328 334 345 348 346 351 348 343 336 331 328 324 319 317 313 309 307 304 300
208 215 235 248 256 253 240 248 243 239 220 195 204 183 180 203 203 148 170 213 268 210 234 272 290 278 282 296 301 304 309 313 337 315 309 303 302 300 302 307 305 303 297 295 292 295 299 296 298 312 327 333 332 337 347 355 1 4 356 359 0 352 342 334 326 324 321 320 314 308 304 301 301 302
200 206 224 239 246 249 268 267 273 269 251 192 203 184 177 195 183 177 181 234 276 275 224 255 272 300 305 304 310 312 308 321 333 332 307 314 310 306 306 304 304 300 303 307 316 323 325 328 331 334 343 352 355 358 7 20 28 28 22 11 358 350 345 334 333 330 331 322 317 317 315 313 310 308
211 210 224 235 237 209 234 252 255 249 249 233 218 206 203 212 202 201 189 225 242 289 256 276 253 276 176 281 238 301 317 316 332 322 313 306 300 303 307 306 303 312 319 325 331 338 341 335 346 6 12 8 13 33 49 54 48 40 30 21 14 7 359 358 353 346 343 342 339 333 326 320 316 316
205 220 227 239 220 209 235 233 240 228 236 214 217 226 202 218 218 190 208 203 256 273 292 253 296 268 284 251 296 300 283 288 296 298 306 313 308 298 298 302 305 314 319 323 331 341 338 355 13 19 18 29 50 61 62 60 55 48 39 26 20 16 14 8 358 354 351 346 343 339 331 324 318 320
203 215 226 235 213 210 231 241 239 227 223 218 211 222 216 215 222 205 184 212 230 271 290 279 258 289 305 281 247 271 274 283 287 279 290 285 287 300 302 303 308 315 316 318 328 341 352 12 26 35 51 64 67 67 67 62 58 48 33 26 21 17 10 3 357 349 346 342 338 338 337 334 331 325
202 210 224 231 204 198 224 240 235 228 235 226 219 231 220 212 220 207 204 208 196 236 263 282 256 272 270 261 292 279 305 291 270 256 273 288 292 295 299 305 306 302 302 309 338 345 8 26 41 54 69 72 69 70 70 66 53 39 30 25 20 14 8 1 355 349 346 343 341 337 338 340 338 332
204 211 217 222 203 205 214 232 231 222 229 219 229 238 233 221 207 220 220 203 215 221 249 264 292 259 287 297 264 292 286 310 314 299 244 272 275 298 315 317 318 323 319 329 337 347 29 39 59 68 80 75 73 75 73 59 44 34 27 21 15 9 2 355 353 351 349 345 341 333 336 338 340 341
211 214 216 215 207 210 214 223 228 222 218 217 230 226 237 227 218 234 227 211 221 226 250 259 247 277 258 246 289 275 245 266 260 293 309 279 210 282 314 310 314 318 314 305 225 322 29 43 66 82 77 78 84 81 67 51 39 30 24 15 7 360 355 353 352 352 349 347 343 338 338 341 343 343
214 214 218 218 213 214 215 216 222 207 221 206 229 223 212 212 214 231 230 224 226 238 242 250 272 253 281 272 247 279 297 295 269 218 284 311 316 318 306 286 302 308 300 314 336 353 81 99 106 108 101 82 77 75 67 49 39 29 21 10 1 358 355 352 350 351 351 349 346 345 345 346 346 344
217 219 218 219 219 216 222 218 222 219 212 206 221 222 192 204 209 223 229 230 228 237 242 263 246 262 267 259 279 291 265 240 276 281 284 281 289 305 307 288 250 256 284 306 304 321 13 63 112 124 77 70 88 72 63 53 44 29 15 7 2 358 354 349 348 352 352 350 350 350 350 349 348 347
220 223 221 225 224 222 223 224 224 226 222 219 220 225 185 202 200 211 224 227 226 232 244 249 257 270 268 264 236 258 250 261 268 279 266 278 298 310 285 265 253 173 263 301 312 314 92 140 125 125 110 82 64 86 46 36 24 15 9 5 3 357 354 350 350 355 354 356 355 353 354 352 351 352
221 223 224 228 230 230 229 226 225 225 224 224 227 231 224 206 201 210 215 227 220 223 236 243 242 246 267 269 237 243 269 256 250 261 262 270 298 305 330 317 307 156 221 308 299 302 123 184 156 134 132 118 101 89 55 347 16 16 11 9 3 358 358 356 358 359 0 359 358 357 356 354 352 356
223 224 222 224 222 221 223 226 223 223 224 224 225 229 231 230 225 219 218 229 228 215 229 237 238 243 246 268 251 254 249 260 245 230 224 228 250 274 271 273 285 229 170 300 303 293 125 154 139 157 152 130 114 85 288 331 22 19 15 11 4 2 1 0 1 4 3 360 360 2 0 357 354 356
225 223 223 225 220 224 225 225 223 219 224 221 223 226 229 232 230 231 232 231 232 227 220 231 246 229 240 254 252 212 235 186 260 206 215 212 224 232 256 259 274 288 201 280 292 290 276 172 176 161 149 135 129 149 170 14 28 28 19 13 10 4 2 2 3 5 3 359 0 2 0 357 353 355
222 224 224 224 228 217 218 222 217 213 220 218 209 211 213 220 230 229 228 231 234 232 230 228 239 248 199 239 254 239 192 223 257 256 258 219 241 233 243 253 252 261 180 255 286 289 276 161 175 193 152 143 141 134 64 346 33 31 19 18 11 6 2 1 2 4 2 2 2 2 2 356 351 353
225 226 223 225 228 231 217 212 210 211 214 212 217 219 220 218 219 216 218 215 212 210 221 229 235 248 233 237 250 252 207 223 242 246 260 261 250 271 287 273 238 260 217 219 202 260 272 130 210 205 157 158 167 142 178 342 32 33 23 15 8 3 1 1 1 359 2 4 5 4 1 355 348 348
228 227 225 225 226 232 230 222 210 213 210 207 220 225 231 233 229 230 228 221 216 212 210 213 227 238 240 238 245 242 222 222 236 246 252 195 207 259 272 272 226 250 183 191 198 242 256 135 236 190 140 156 176 170 141 96 29 33 26 9 358 357 358 1 359 356 358 6 9 8 2 353 343 341
227 225 224 221 223 226 232 225 209 212 208 213 218 226 235 238 244 250 237 214 219 224 224 228 234 242 248 248 249 251 241 237 218 195 254 248 225 241 261 265 242 251 171 191 211 233 273 190 204 208 155 196 194 178 156 95 46 36 26 3 351 354 355 357 356 358 358 4 9 8 6 356 339 335
229 227 220 216 222 227 232 226 214 208 199 216 219 224 232 243 250 257 247 213 221 219 227 234 239 244 250 254 256 256 248 230 207 204 234 239 185 236 234 265 268 281 186 217 174 191 238 114 172 212 138 203 223 187 167 156 128 100 52 9 346 356 351 351 350 355 359 2 8 10 5 3 344 3
231 232 227 222 221 222 228 224 217 206 194 212 215 217 223 234 244 247 259 246 239 221 224 240 235 249 243 242 238 243 244 222 207 215 230 235 216 237 239 247 271 286 275 195 159 204 217 171 180 192 226 259 184 143 176 190 131 51 32 359 358 8 346 342 338 344 351 355 10 13 6 9 2 22
230 231 233 226 222 223 226 225 217 206 198 208 217 207 219 229 242 246 244 238 233 248 232 249 239 243 241 230 226 229 228 209 201 214 219 224 219 226 238 240 246 254 270 140 172 200 156 183 189 178 214 268 271 152 209 218 190 82 34 333 339 358 335 328 338 336 343 350 18 15 9 12 17 23
228 229 225 229 217 218 225 228 224 211 205 210 216 212 222 224 237 247 247 246 238 243 246 245 246 248 246 241 236 231 222 215 206 207 217 217 216 213 221 241 243 251 242 213 172 207 190 181 191 149 172 193 237 251 145 292 230 201 68 350 336 356 347 353 347 352 339 347 47 24 14 9 23 25
228 229 225 225 219 215 220 225 227 219 208 211 211 225 226 233 237 243 244 257 254 245 251 254 252 251 250 249 242 236 231 226 216 212 210 211 216 211 216 215 217 239 236 161 162 190 164 193 187 163 166 179 201 207 279 240 235 180 176 315 277 325 337 346 346 356 357 359 12 17 5 2 22 21
225 224 225 227 222 214 216 220 225 224 211 204 218 228 232 234 236 241 254 254 254 251 248 248 255 254 251 253 247 240 239 234 219 224 218 213 208 216 224 227 233 244 38 136 185 188 197 208 173 188 178 160 158 135 215 250 215 158 252 216 244 219 324 349 3 5 2 358 2 359 1 22 24 20
219 221 221 223 220 214 214 217 222 226 209 208 218 226 235 239 238 235 242 246 246 251 253 247 248 249 244 245 246 242 236 242 224 226 225 223 213 218 221 222 228 229 221 194 173 194 187 203 187 223 165 163 171 188 222 206 248 253 283 309 263 264 1 357 13 6 7 4 5 6 1 2 10 10
222 222 215 216 217 217 215 216 221 228 224 220 224 225 230 230 206 213 217 229 233 240 238 238 242 248 243 236 239 241 241 237 235 228 230 223 224 222 219 216 211 214 222 215 187 184 189 197 174 146 140 152 167 175 181 204 181 216 195 322 254 207 320 352 20 15 5 7 13 14 11 0 4 7
222 222 216 214 218 219 218 209 199 205 215 214 219 229 229 207 211 204 210 217 222 235 234 236 240 241 245 244 236 234 225 224 228 222 223 200 213 195 193 191 173 159 177 200 197 187 187 180 149 152 143 156 181 174 190 177 227 231 180 225 287 282 200 343 18 27 11 4 3 5 6 9 11 9
233 235 229 215 204 208 204 207 213 215 216 208 214 212 206 207 210 209 210 212 219 230 239 246 246 245 251 263 237 223 210 235 237 214 224 218 224 186 204 201 185 148 93 73 108 149 163 152 154 156 146 143 166 204 141 156 230 243 224 199 221 298 17 340 3 22 12 351 344 334 345 351 13 23
225 229 209 190 182 183 161 195 185 205 202 213 213 209 190 205 212 221 231 244 248 252 244 253 258 260 237 237 231 225 229 237 228 193 210 218 223 183 143 175 219 172 140 133 97 74 109 141 156 159 145 160 174 165 106 174 224 230 257 218 221 255 262 280 330 7 17 340 341 3 4 5 7 3
220 221 211 208 201 194 202 191 204 203 207 218 215 206 194 199 200 200 193 215 223 230 234 236 234 243 241 241 234 235 233 234 233 193 206 211 228 183 181 216 214 175 183 178 175 125 103 99 67 67 65 69 57 134 145 184 230 218 237 242 226 260 240 208 245 324 347 318 360 351 356 10 360 358
198 197 208 212 208 207 200 207 207 211 209 219 212 205 210 208 202 207 213 231 245 248 244 246 241 239 234 240 234 234 230 238 231 217 208 223 217 205 201 217 223 204 189 182 174 166 129 103 105 78 71 87 96 176 181 192 217 200 212 212 228 264 249 201 178 116 58 62 342 332 351 360 20 352
202 205 209 212 209 214 210 213 215 212 216 219 212 208 191 198 210 209 214 210 211 221 221 220 230 272 320 308 305 275 253 240 230 222 214 221 213 212 206 214 221 214 196 180 175 149 134 131 129 93 38 13 333 228 215 218 208 217 160 216 217 233 261 183 203 157 116 112 30 330 308 231 196 164
198 207 209 206 208 202 206 211 213 215 218 209 200 191 179 190 194 194 204 211 215 225 227 222 191 194 220 245 262 263 259 248 237 221 209 206 207 212 214 218 215 213 198 183 161 141 146 148 145 139 178 191 213 267 258 205 211 202 198 213 170 204 223 195 184 210 234 241 146 348 318 314 315 328
207 207 209 212 207 201 205 204 205 213 213 197 187 190 196 195 200 204 217 215 239 246 233 218 212 194 196 205 230 243 243 236 229 210 201 209 208 205 211 218 216 203 194 182 144 151 149 152 170 163 167 186 212 228 230 123 231 230 203 208 193 188 178 158 189 236 229 225 231 218 260 295 291 295
215 197 204 209 210 204 204 200 198 207 196 186 189 198 207 209 199 205 200 206 220 215 223 229 241 228 212 203 200 219 241 238 226 212 211 206 202 208 213 222 226 216 202 133 135 155 166 169 175 175 184 186 197 223 241 212 202 207 202 193 204 173 157 168 208 239 210 177 229 231 180 248 270 294
213 213 208 208 207 205 198 201 203 207 191 183 196 205 200 193 199 205 202 212 211 212 216 223 219 212 224 228 217 214 228 221 212 213 209 216 210 210 213 221 230 186 122 139 150 179 182 185 178 179 182 183 195 204 200 189 213 122 181 199 197 163 186 187 219 207 225 227 204 193 234 246 282 278
209 212 216 209 203 195 206 204 207 201 190 197 201 184 171 190 200 207 208 213 217 218 222 227 225 217 224 227 220 211 215 215 215 211 215 216 209 203 204 209 219 157 142 153 171 195 201 201 188 189 193 196 171 87 132 159 74 192 157 196 213 207 184 168 197 190 216 207 169 251 276 261 282 187
204 206 214 212 208 205 205 205 205 196 196 188 184 170 177 193 207 213 211 207 204 212 224 233 228 224 221 217 208 207 217 219 216 215 211 215 205 197 194 185 205 180 179 176 181 193 210 212 201 171 132 98 127 135 103 196 232 192 214 187 192 217 225 207 195 181 199 143 162 193 263 286 309 316
198 209 212 209 211 206 201 200 193 191 194 184 180 180 191 200 217 213 209 201 202 206 217 231 235 229 230 226 219 210 218 220 213 209 203 203 215 191 173 183 203 199 197 201 190 202 208 169 160 152 152 143 149 184 218 219 233 234 244 207 152 196 213 225 240 250 237 174 172 208 223 183 167 249
197 207 203 197 192 188 190 193 191 192 190 184 186 179 182 201 208 209 220 217 206 199 203 215 223 227 230 227 220 212 220 228 219 201 202 199 198 190 191 204 217 218 205 209 186 171 149 169 160 150 158 172 187 189 219 220 220 218 232 236 186 140 179 205 222 232 248 253 243 239 219 225 181 253
186 191 186 166 176 189 189 185 193 196 191 186 190 185 186 193 208 213 210 209 202 200 205 214 221 221 221 215 213 212 199 257 208 193 211 201 196 191 199 198 182 183 182 192 180 184 168 161 166 157 159 188 179 187 219 222 226 214 232 259 242 230 226 157 173 209 236 241 240 239 244 243 239 253
94 105 111 121 166 182 193 198 197 198 182 182 173 178 183 194 208 205 201 196 203 199 194 205 205 193 182 179 169 195 187 203 191 174 175 182 191 195 194 177 178 181 192 195 180 174 167 155 137 160 192 182 182 201 217 216 229 220 214 224 248 230 222 203 240 238 233 256 223 216 230 233 242 253